• In Hungary
  • List of Countries
  • For 7 days
  • Water Temperature
  • Satellite Maps
  • Weather Map
  • News
  • Weather Widgets
  • user-avatar
    Login

    Hourly Weather Marzecin

    Today, 24 September, Monday

    Time Temperature Precipitation Wind Pressure Humidity
    00:00 +8°C° 0.8 mm 6 mps 750 mmHg 88%
    01:00 +8°C° 0 mm 5 mps 751 mmHg 86%
    02:00 +8°C° 0.1 mm 6 mps 752 mmHg 86%
    03:00 +8°C° 0.1 mm 6 mps 753 mmHg 86%
    04:00 +8°C° 0.1 mm 7 mps 754 mmHg 86%
    05:00 +6°C° 0 mm 7 mps 755 mmHg 85%
    06:00 +6°C° 0 mm 7 mps 756 mmHg 84%
    07:00 +6°C° 0 mm 7 mps 756 mmHg 83%
    08:00 +8°C° 0.1 mm 7 mps 757 mmHg 78%
    09:00 +9°C° 0.1 mm 8 mps 757 mmHg 72%
    10:00 +10°C° 0.1 mm 8 mps 758 mmHg 67%
    11:00 +10°C° 0.2 mm 8 mps 758 mmHg 62%
    12:00 +11°C° 0.2 mm 8 mps 759 mmHg 58%
    13:00 +12°C° 0.2 mm 8 mps 759 mmHg 53%
    14:00 +12°C° 0.2 mm 8 mps 759 mmHg 51%
    15:00 +12°C° 0.2 mm 7 mps 760 mmHg 49%
    16:00 +12°C° 0.2 mm 7 mps 760 mmHg 48%
    17:00 +10°C° 0.1 mm 6 mps 761 mmHg 53%
    18:00 +9°C° 0.1 mm 5 mps 761 mmHg 59%
    19:00 +8°C° 0.1 mm 4 mps 762 mmHg 64%
    20:00 +8°C° 0 mm 4 mps 762 mmHg 66%
    21:00 +7°C° 0 mm 4 mps 763 mmHg 67%
    22:00 +7°C° 0 mm 4 mps 763 mmHg 69%
    23:00 +6°C° 0 mm 4 mps 764 mmHg 70%

    Tomorrow, 25 September, Tuesday

    Time Temperature Precipitation Wind Pressure Humidity
    00:00 +6°C° 0 mm 4 mps 764 mmHg 70%
    01:00 +6°C° 0 mm 4 mps 765 mmHg 71%
    02:00 +6°C° 0 mm 4 mps 765 mmHg 72%
    03:00 +5°C° 0 mm 4 mps 766 mmHg 74%
    04:00 +5°C° 0 mm 4 mps 766 mmHg 75%
    05:00 +5°C° 0 mm 4 mps 767 mmHg 75%
    06:00 +5°C° 0 mm 4 mps 767 mmHg 76%
    07:00 +5°C° 0 mm 4 mps 768 mmHg 76%
    08:00 +7°C° 0 mm 4 mps 768 mmHg 70%
    09:00 +10°C° 0 mm 4 mps 769 mmHg 63%
    10:00 +11°C° 0 mm 3 mps 769 mmHg 57%
    11:00 +12°C° 0.1 mm 3 mps 769 mmHg 53%
    12:00 +13°C° 0.1 mm 3 mps 769 mmHg 48%
    13:00 +14°C° 0.1 mm 3 mps 769 mmHg 44%
    14:00 +14°C° 0 mm 3 mps 769 mmHg 44%
    15:00 +14°C° 0 mm 3 mps 769 mmHg 45%
    16:00 +14°C° 0 mm 3 mps 769 mmHg 45%
    17:00 +13°C° 0 mm 2 mps 770 mmHg 49%
    18:00 +12°C° 0 mm 2 mps 770 mmHg 54%
    19:00 +11°C° 0 mm 1 mps 770 mmHg 58%
    20:00 +10°C° 0 mm 1 mps 771 mmHg 61%
    21:00 +9°C° 0 mm 1 mps 771 mmHg 63%
    22:00 +9°C° 0 mm 1 mps 771 mmHg 65%
    23:00 +8°C° 0 mm 1 mps 771 mmHg 67%

    Day after tomorrow, 26 September, Wednesday

    Time Temperature Precipitation Wind Pressure Humidity
    00:00 +8°C° 0 mm 1 mps 771 mmHg 68%
    01:00 +6°C° 0 mm 2 mps 771 mmHg 70%
    02:00 +6°C° 0 mm 2 mps 771 mmHg 70%
    03:00 +6°C° 0 mm 2 mps 771 mmHg 71%
    04:00 +6°C° 0 mm 2 mps 771 mmHg 72%
    05:00 +6°C° 0 mm 2 mps 770 mmHg 71%
    06:00 +6°C° 0 mm 2 mps 770 mmHg 69%
    07:00 +7°C° 0 mm 2 mps 770 mmHg 68%
    08:00 +9°C° 0 mm 3 mps 770 mmHg 60%
    09:00 +11°C° 0 mm 4 mps 769 mmHg 53%
    10:00 +13°C° 0 mm 4 mps 769 mmHg 46%
    11:00 +14°C° 0 mm 4 mps 769 mmHg 43%
    12:00 +15°C° 0 mm 5 mps 768 mmHg 41%
    13:00 +16°C° 0 mm 5 mps 768 mmHg 38%
    14:00 +15°C° 0 mm 5 mps 767 mmHg 39%
    15:00 +15°C° 0 mm 5 mps 766 mmHg 40%
    16:00 +15°C° 0 mm 4 mps 766 mmHg 41%
    17:00 +14°C° 0 mm 4 mps 766 mmHg 45%
    18:00 +13°C° 0 mm 4 mps 766 mmHg 48%
    19:00 +12°C° 0 mm 4 mps 766 mmHg 51%
    20:00 +12°C° 0 mm 4 mps 766 mmHg 52%
    21:00 +12°C° 0 mm 4 mps 766 mmHg 53%
    22:00 +12°C° 0 mm 4 mps 766 mmHg 53%
    23:00 +12°C° 0 mm 4 mps 765 mmHg 54%

    27 September, Thursday

    Time Temperature Precipitation Wind Pressure Humidity
    00:00 +12°C° 0 mm 4 mps 765 mmHg 56%
    01:00 +12°C° 0 mm 5 mps 765 mmHg 57%
    02:00 +12°C° 0 mm 5 mps 765 mmHg 57%
    03:00 +12°C° 0 mm 5 mps 765 mmHg 58%
    04:00 +12°C° 0 mm 5 mps 764 mmHg 59%
    05:00 +12°C° 0 mm 5 mps 764 mmHg 60%
    06:00 +12°C° 0 mm 5 mps 764 mmHg 61%
    07:00 +12°C° 0 mm 5 mps 764 mmHg 62%
    08:00 +13°C° 0 mm 5 mps 764 mmHg 60%
    09:00 +15°C° 0 mm 5 mps 765 mmHg 58%
    10:00 +17°C° 0 mm 5 mps 765 mmHg 56%
    11:00 +19°C° 0 mm 5 mps 764 mmHg 55%
    12:00 +20°C° 0 mm 5 mps 764 mmHg 54%
    13:00 +22°C° 0 mm 5 mps 764 mmHg 54%
    14:00 +22°C° 0 mm 5 mps 763 mmHg 55%
    15:00 +22°C° 0 mm 4 mps 763 mmHg 56%
    16:00 +22°C° 0 mm 4 mps 763 mmHg 57%
    17:00 +20°C° 0 mm 3 mps 762 mmHg 64%
    18:00 +19°C° 0 mm 3 mps 762 mmHg 71%
    19:00 +17°C° 0 mm 2 mps 762 mmHg 77%
    20:00 +17°C° 0 mm 2 mps 762 mmHg 78%
    21:00 +16°C° 0 mm 2 mps 761 mmHg 80%
    22:00 +16°C° 0 mm 2 mps 761 mmHg 81%
    23:00 +16°C° 0 mm 2 mps 761 mmHg 81%

    28 September, Friday

    Time Temperature Precipitation Wind Pressure Humidity
    00:00 +14°C° 0 mm 3 mps 760 mmHg 81%
    01:00 +14°C° 0 mm 3 mps 760 mmHg 81%
    02:00 +14°C° 0 mm 3 mps 759 mmHg 80%
    03:00 +14°C° 0 mm 3 mps 759 mmHg 80%
    04:00 +14°C° 0 mm 3 mps 758 mmHg 79%
    05:00 +14°C° 0 mm 3 mps 758 mmHg 76%
    06:00 +13°C° 0 mm 3 mps 758 mmHg 74%
    07:00 +13°C° 0 mm 4 mps 757 mmHg 71%
    08:00 +15°C° 0 mm 4 mps 757 mmHg 64%
    09:00 +17°C° 0 mm 4 mps 757 mmHg 56%
    10:00 +19°C° 0 mm 4 mps 757 mmHg 49%
    11:00 +19°C° 0 mm 4 mps 757 mmHg 47%
    12:00 +20°C° 0 mm 4 mps 757 mmHg 45%
    13:00 +21°C° 0 mm 4 mps 757 mmHg 43%
    14:00 +20°C° 0 mm 5 mps 757 mmHg 48%
    15:00 +19°C° 0 mm 5 mps 757 mmHg 53%
    16:00 +17°C° 0 mm 5 mps 757 mmHg 58%
    17:00 +17°C° 0 mm 4 mps 757 mmHg 59%
    18:00 +15°C° 0 mm 4 mps 758 mmHg 61%
    19:00 +14°C° 0 mm 4 mps 758 mmHg 62%
    20:00 +13°C° 0 mm 3 mps 758 mmHg 61%
    21:00 +12°C° 0 mm 3 mps 759 mmHg 59%
    22:00 +11°C° 0 mm 3 mps 759 mmHg 58%
    23:00 +11°C° 0 mm 3 mps 760 mmHg 62%

    29 September, Saturday

    Time Temperature Precipitation Wind Pressure Humidity
    00:00 +10°C° 0 mm 3 mps 760 mmHg 66%
    01:00 +9°C° 0 mm 3 mps 760 mmHg 70%
    02:00 +9°C° 0 mm 3 mps 760 mmHg 72%
    03:00 +8°C° 0 mm 3 mps 761 mmHg 75%
    04:00 +8°C° 0 mm 3 mps 761 mmHg 77%
    05:00 +8°C° 0 mm 3 mps 762 mmHg 78%
    06:00 +8°C° 0 mm 3 mps 762 mmHg 78%
    07:00 +8°C° 0 mm 3 mps 763 mmHg 79%
    08:00 +10°C° 0 mm 3 mps 763 mmHg 71%
    09:00 +12°C° 0 mm 3 mps 764 mmHg 64%
    10:00 +13°C° 0 mm 3 mps 764 mmHg 57%
    11:00 +14°C° 0 mm 3 mps 764 mmHg 53%
    12:00 +16°C° 0 mm 3 mps 764 mmHg 49%
    13:00 +16°C° 0 mm 3 mps 764 mmHg 45%
    14:00 +16°C° 0 mm 3 mps 764 mmHg 45%
    15:00 +16°C° 0 mm 3 mps 764 mmHg 44%
    16:00 +16°C° 0 mm 3 mps 764 mmHg 44%
    17:00 +14°C° 0 mm 2 mps 764 mmHg 49%
    18:00 +13°C° 0 mm 2 mps 765 mmHg 53%
    19:00 +11°C° 0 mm 1 mps 765 mmHg 58%
    20:00 +10°C° 0 mm 2 mps 765 mmHg 59%
    21:00 +9°C° 0 mm 2 mps 765 mmHg 60%
    22:00 +9°C° 0 mm 2 mps 766 mmHg 61%
    23:00 +8°C° 0 mm 2 mps 766 mmHg 63%
    Show more